Skip Page Navigation
NASA JPL Caltech
NASA Logo - Jet Propulsion Laboratory + View the NASA Portal
+ Center for Near-Earth Object Studies
JPL Home Earth Solar System Stars & Galaxies Technology
JPL Solar System Dynamics
BODIES ORBITS EPHEMERIDES TOOLS PHYSICAL DATA DISCOVERY FAQ SITE MAP
JPL Small-Body Database Browser
Search: [ help ]  
305031 (2007 TG414)
Classification: Main-belt Asteroid          SPK-ID: 2305031
Ephemeris | Orbit Diagram | Orbital Elements | Mission Design | Physical Parameters | Discovery Circumstances ]

[ show orbit diagram ]
Orbital Elements at Epoch 2459396.5 (2021-Jul-01.0) TDB
Reference: JPL 26 (heliocentric ecliptic J2000)
 Element Value Uncertainty (1-sigma)   Units 
e .2016965800719612 5.1472e-08  
a 2.590820035230621 1.7275e-08 au
q 2.068260494542686 1.3401e-07 au
i 14.2202614756149 4.6861e-06 deg
node 55.17545084241469 2.0671e-05 deg
peri 307.744473005679 2.4093e-05 deg
M 134.7838059286384 1.4213e-05 deg
tp 2458826.218199746812
(2019-Dec-08.71819975)
5.6866e-05 TDB
period 1523.190762248137
4.17
1.5234e-05
4.171e-08
d
yr
n .2363459711826652 2.3638e-09 deg/d
Q 3.113379575918555 2.0759e-08 au
  Orbit Determination Parameters
   # obs. used (total)      440  
   data-arc span      4921 days (13.47 yr)  
   first obs. used      2007-10-11  
   last obs. used      2021-04-01  
   planetary ephem.      DE441  
   SB-pert. ephem.      SB441-N16  
   condition code      0  
   norm. resid. RMS      .54465  
   source      ORB  
   producer      Otto Matic  
   solution date      2021-Jul-09 05:51:22  

Additional Information
 Earth MOID = 1.09957 au 
 Jupiter MOID = 2.43292 au 
 T_jup = 3.348 
[ show covariance matrix ]

Ephemeris | Orbit Diagram | Orbital Elements | Mission Design | Physical Parameters | Discovery Circumstances ]

Physical Parameter Table
Parameter Symbol Value Units Sigma Reference Notes
absolute magnitude H 16.19   n/a MPCxxxxx  

305031 (2007 TG414)          Discovered 2007-Oct-15 by CSS at Catalina
Reference: 20111110/Numbers.arcLast Updated: 2011-11-14
Ephemeris | Orbit Diagram | Orbital Elements | Mission Design | Physical Parameters | Discovery Circumstances ]
ABOUT SSD CREDITS/AWARDS PRIVACY/COPYRIGHT GLOSSARY LINKS
FirstGov 2021-Aug-01 12:21 UT
(server date/time)  
NASA Home Page
Site Manager:   Ryan S. Park
Webmaster  Alan B. Chamberlin